DW4993 Weather Reports


Display with metric or nautical units.
time (UTC)temp
F
wind
direction
speed
MPH
gust
MPH
rain 1hr
in
rain 24hr
in
rain mn
in
humidity
%
barometer
mb
20260503024805 63 201 1.0 5.0 0.00 0.00 0.00 39 1008.8
20260503024304 63 193 2.0 6.0 0.00 0.00 0.00 39 1008.8
20260503023805 64 215 3.0 8.0 0.00 0.00 0.00 38 1008.8
20260503023305 64 211 3.0 7.0 0.00 0.00 0.00 37 1008.8
20260503022805 64 214 3.0 7.0 0.00 0.00 0.00 37 1008.7
20260503022305 65 193 4.0 7.0 0.00 0.00 0.00 36 1008.7
20260503021305 65 203 2.0 9.0 0.00 0.00 0.00 35 1008.8
20260503020805 66 208 3.0 8.0 0.00 0.00 0.00 35 1008.8
20260503020304 66 203 4.0 9.0 0.00 0.00 0.00 34 1008.8
20260503015305 67 197 2.0 8.0 0.00 0.00 0.00 33 1008.9
20260503014305 68 204 4.0 8.0 0.00 0.00 0.00 31 1009.0
20260503013806 69 192 3.0 8.0 0.00 0.00 0.00 31 1009.0
20260503013305 69 202 3.0 7.0 0.00 0.00 0.00 30 1009.1
20260503012804 69 194 4.0 10.0 0.00 0.00 0.00 30 1009.1
20260503012306 70 201 5.0 8.0 0.00 0.00 0.00 30 1009.3
20260503011305 70 204 3.0 8.0 0.00 0.00 0.00 29 1009.3
20260503010805 70 193 3.0 7.0 0.00 0.00 0.00 29 1009.3
20260503010306 70 234 3.0 9.0 0.00 0.00 0.00 29 1009.3
20260503005305 71 247 3.0 7.0 0.00 0.00 0.00 28 1009.4
20260503004305 70 233 2.0 7.0 0.00 0.00 0.00 29 1009.6
20260503003804 70 226 2.0 3.0 0.00 0.00 0.00 29 1009.6
20260503003304 70 214 3.0 10.0 0.00 0.00 0.00 29 1009.7
20260503002806 70 221 3.0 10.0 0.00 0.00 0.00 29 1009.7
20260503002305 70 192 3.0 8.0 0.00 0.00 0.00 29 1009.7
20260503001305 70 235 3.0 7.0 0.00 0.00 0.00 29 1009.9
20260503000806 70 247 3.0 7.0 0.00 0.00 0.00 29 1009.9
20260503000305 70 200 5.0 9.0 0.00 0.00 0.00 30 1010.0
20260502235804 70 173 3.0 8.0 0.00 0.00 0.00 29 1010.1
20260502235305 70 219 2.0 3.0 0.00 0.00 0.00 30 1010.1
20260502234806 70 212 3.0 9.0 0.00 0.00 0.00 29 1010.1
20260502233305 70 219 1.0 5.0 0.00 0.00 0.00 30 1010.2
20260502232805 70 238 3.0 8.0 0.00 0.00 0.00 30 1010.4
20260502232305 70 235 6.0 10.0 0.00 0.00 0.00 29 1010.5
20260502231805 70 234 1.0 6.0 0.00 0.00 0.00 30 1010.5
20260502231304 71 213 4.0 8.0 0.00 0.00 0.00 29 1010.7
20260502230806 71 204 3.0 6.0 0.00 0.00 0.00 29 1010.7
20260502230304 70 186 2.0 7.0 0.00 0.00 0.00 30 1010.8
20260502225805 70 187 3.0 7.0 0.00 0.00 0.00 30 1010.9
20260502225305 70 236 3.0 6.0 0.00 0.00 0.00 31 1010.9
20260502224805 69 189 2.0 5.0 0.00 0.00 0.00 31 1011.0
20260502223804 69 230 6.0 10.0 0.00 0.00 0.00 30 1011.2
20260502223305 69 132 2.0 7.0 0.00 0.00 0.00 31 1011.3
20260502222805 69 242 2.0 6.0 0.00 0.00 0.00 32 1011.4
20260502222305 69 239 3.0 10.0 0.00 0.00 0.00 30 1011.4
20260502221304 69 219 2.0 6.0 0.00 0.00 0.00 32 1011.7
20260502220804 68 205 2.0 7.0 0.00 0.00 0.00 32 1011.7
20260502220305 68 239 3.0 5.0 0.00 0.00 0.00 33 1011.9
20260502215806 67 220 3.0 7.0 0.00 0.00 0.00 32 1012.0
20260502215305 68 236 7.0 12.0 0.00 0.00 0.00 31 1012.1
20260502214805 68 232 3.0 8.0 0.00 0.00 0.00 32 1012.1
20260502214305 68 234 2.0 3.0 0.00 0.00 0.00 31 1012.1
20260502213805 68 205 2.0 3.0 0.00 0.00 0.00 33 1012.2
20260502213305 67 196 3.0 8.0 0.00 0.00 0.00 33 1012.3
20260502212804 67 278 1.0 3.0 0.00 0.00 0.00 33 1012.3
20260502212305 67 242 3.0 10.0 0.00 0.00 0.00 33 1012.5
20260502211805 67 197 3.0 12.0 0.00 0.00 0.00 34 1012.4
20260502210305 67 213 2.0 9.0 0.00 0.00 0.00 34 1012.8
20260502205805 66 218 2.0 5.0 0.00 0.00 0.00 33 1012.9
20260502204804 66 273 6.0 9.0 0.00 0.00 0.00 34 1013.1
20260502204304 65 149 2.0 5.0 0.00 0.00 0.00 35 1013.1
20260502203806 65 200 1.0 3.0 0.00 0.00 0.00 34 1013.2
20260502202804 65 236 4.0 7.0 0.00 0.00 0.00 34 1013.4
20260502202305 65 196 1.0 7.0 0.00 0.00 0.00 34 1013.4
20260502201805 65 209 4.0 9.0 0.00 0.00 0.00 34 1013.6
20260502201305 65 240 2.0 9.0 0.00 0.00 0.00 35 1013.6
20260502200805 65 152 1.0 3.0 0.00 0.00 0.00 37 1013.7
20260502200305 64 259 1.0 8.0 0.00 0.00 0.00 37 1013.8
20260502193805 64 105 2.0 5.0 0.00 0.00 0.00 37 1014.2
20260502193305 64 97 3.0 7.0 0.00 0.00 0.00 37 1014.3
20260502192805 64 130 3.0 8.0 0.00 0.00 0.00 38 1014.4
20260502192305 64 208 2.0 6.0 0.00 0.00 0.00 37 1014.4
20260502191806 64 217 2.0 8.0 0.00 0.00 0.00 38 1014.5
20260502191304 64 195 2.0 7.0 0.00 0.00 0.00 38 1014.7
20260502190804 64 210 5.0 10.0 0.00 0.00 0.00 37 1014.7
20260502190305 64 221 3.0 6.0 0.00 0.00 0.00 39 1014.7
20260502185805 64 204 3.0 6.0 0.00 0.00 0.00 39 1014.8
20260502185305 63 218 2.0 6.0 0.00 0.00 0.00 40 1014.8
20260502184804 63 199 3.0 7.0 0.00 0.00 0.00 40 1014.8
20260502184305 62 196 2.0 5.0 0.00 0.00 0.00 40 1014.9
20260502183805 62 192 3.0 9.0 0.00 0.00 0.00 40 1015.0
20260502182805 62 216 3.0 6.0 0.00 0.00 0.00 39 1015.1
20260502182306 62 197 4.0 8.0 0.00 0.00 0.00 40 1015.2
20260502181805 62 220 2.0 6.0 0.00 0.00 0.00 41 1015.2
20260502181304 62 244 2.0 7.0 0.00 0.00 0.00 40 1015.3
20260502180805 62 202 1.0 2.0 0.00 0.00 0.00 41 1015.3
20260502180306 61 191 2.0 7.0 0.00 0.00 0.00 41 1015.4
20260502170304 60 217 2.0 3.0 0.00 0.00 0.00 42 1015.9
20260502164304 59 208 2.0 5.0 0.00 0.00 0.00 44 1016.1
20260502163805 59 105 2.0 5.0 0.00 0.00 0.00 44 1016.1
20260502163305 58 117 1.0 3.0 0.00 0.00 0.00 47 1016.1
20260502162804 57 117 1.0 3.0 0.00 0.00 0.00 47 1016.2
20260502162305 56 109 2.0 3.0 0.00 0.00 0.00 50 1016.2
20260502161805 55 83 1.0 2.0 0.00 0.00 0.00 56 1016.3
20260502161305 54 82 1.0 2.0 0.00 0.00 0.00 54 1016.3
20260502160804 53 82 1.0 3.0 0.00 0.00 0.00 54 1016.4
20260502160304 53 85 1.0 3.0 0.00 0.00 0.00 55 1016.4
20260502152305 52 9 0.0 1.0 0.00 0.00 0.00 58 1016.6
20260502151805 51 9 1.0 2.0 0.00 0.00 0.00 60 1016.6
20260502151305 51 9 1.0 2.0 0.00 0.00 0.00 61 1016.6
20260502150804 51 9 1.0 2.0 0.00 0.00 0.00 62 1016.6
20260502150304 51 9 0.0 3.0 0.00 0.00 0.00 62 1016.6
20260502130304 47 23 0.0 0.0 0.00 0.00 0.00 69 1015.9
20260502123304 46 23 0.0 0.0 0.00 0.00 0.00 70 1015.9
20260502122804 46 23 0.0 2.0 0.00 0.00 0.00 70 1015.9
20260502121805 46 23 2.0 3.0 0.00 0.00 0.00 70 1016.0
20260502121304 46 23 1.0 3.0 0.00 0.00 0.00 70 1016.0
20260502120804 46 23 2.0 5.0 0.00 0.00 0.00 70 1016.0
20260502120305 46 12 2.0 3.0 0.00 0.00 0.00 70 1016.0
20260502115805 46 0 2.0 3.0 0.00 0.00 0.00 70 1015.9
20260502115306 47 356 1.0 3.0 0.00 0.00 0.00 70 1015.9
20260502114805 47 356 0.0 3.0 0.00 0.00 0.00 70 1015.9
20260502113805 47 358 2.0 3.0 0.00 0.00 0.00 70 1015.9
20260502113304 47 0 2.0 3.0 0.00 0.00 0.00 70 1015.9
20260502112804 47 0 1.0 3.0 0.00 0.00 0.00 70 1015.9
20260502112306 47 0 1.0 3.0 0.00 0.00 0.00 70 1016.0
20260502111806 47 0 0.0 2.0 0.00 0.00 0.00 70 1016.0
20260502110805 47 0 0.0 0.0 0.00 0.00 0.00 70 1015.9
20260502110304 47 0 0.0 0.0 0.00 0.00 0.00 70 1016.0
20260502105306 48 0 0.0 0.0 0.00 0.00 0.00 69 1016.0
20260502104805 48 0 0.0 0.0 0.00 0.00 0.00 69 1016.0
20260502103304 48 0 1.0 3.0 0.00 0.00 0.00 68 1016.0
20260502102806 48 0 2.0 3.0 0.00 0.00 0.00 68 1015.9
20260502102306 48 0 2.0 3.0 0.00 0.00 0.00 68 1015.9
20260502101804 48 2 2.0 3.0 0.00 0.00 0.00 68 1015.9
20260502100804 49 19 1.0 3.0 0.00 0.00 0.00 68 1015.8
20260502100304 49 19 1.0 3.0 0.00 0.00 0.00 67 1015.8
20260502091305 50 356 1.0 3.0 0.00 0.00 0.00 68 1015.7
20260502090805 50 356 1.0 2.0 0.00 0.00 0.00 67 1015.7
20260502090305 50 356 1.0 3.0 0.00 0.00 0.00 67 1015.7
20260502071305 50 357 1.0 2.0 0.00 0.00 0.00 63 1015.4
20260502070804 50 359 0.0 1.0 0.00 0.00 0.00 63 1015.4
20260502070305 50 359 0.0 0.0 0.00 0.00 0.00 63 1015.4
20260502065804 50 359 0.0 2.0 0.00 0.00 0.00 63 1015.4
20260502064805 50 359 1.0 3.0 0.00 0.00 0.00 63 1015.3
20260502064305 50 358 1.0 3.0 0.00 0.00 0.00 63 1015.3
20260502063804 50 358 3.0 5.0 0.00 0.00 0.00 62 1015.2
20260502063305 51 343 1.0 3.0 0.00 0.00 0.00 62 1015.2
20260502062804 51 341 1.0 3.0 0.00 0.00 0.00 62 1015.2
20260502062306 51 339 0.0 3.0 0.00 0.00 0.00 62 1015.2
20260502061805 51 337 1.0 3.0 0.00 0.00 0.00 62 1015.2
20260502061305 51 333 1.0 3.0 0.00 0.00 0.00 62 1015.3
20260502060818 51 310 0.0 3.0 0.00 0.00 0.00 61 1015.3
20260502060305 51 314 1.0 2.0 0.00 0.00 0.00 61 1015.3
20260502055804 51 315 1.0 3.0 0.00 0.00 0.00 61 1015.3
20260502055306 51 315 1.0 3.0 0.00 0.00 0.00 61 1015.3
20260502054804 51 320 2.0 3.0 0.00 0.00 0.00 61 1015.2
20260502054304 51 26 0.0 3.0 0.00 0.00 0.00 61 1015.2
20260502053305 51 27 1.0 3.0 0.00 0.00 0.00 60 1014.9
20260502052804 51 27 1.0 2.0 0.00 0.00 0.00 60 1014.9
20260502052306 51 27 1.0 3.0 0.00 0.00 0.00 60 1014.8
20260502050804 52 31 0.0 2.0 0.00 0.00 0.00 58 1014.7
20260502050304 52 31 2.0 7.0 0.00 0.00 0.00 58 1014.6
20260502045804 52 28 2.0 5.0 0.00 0.00 0.00 58 1014.6
20260502045306 53 33 2.0 6.0 0.00 0.00 0.00 57 1014.5
20260502044805 53 35 2.0 5.0 0.00 0.00 0.00 56 1014.4
20260502044305 53 36 3.0 8.0 0.00 0.00 0.00 56 1014.4
20260502043806 53 36 4.0 10.0 0.00 0.00 0.00 56 1014.4
20260502043304 53 39 2.0 9.0 0.00 0.00 0.00 55 1014.4
20260502042805 54 32 4.0 10.0 0.00 0.00 0.00 55 1014.3
20260502042306 54 45 5.0 9.0 0.00 0.00 0.00 55 1014.2
20260502041805 54 49 3.0 10.0 0.00 0.00 0.00 54 1014.2
20260502041305 54 37 4.0 10.0 0.00 0.00 0.00 54 1014.1
20260502040805 54 41 6.0 12.0 0.00 0.00 0.00 54 1014.1
20260502035306 55 46 6.0 12.0 0.00 0.00 0.00 53 1013.9
20260502034804 55 37 6.0 14.0 0.00 0.00 0.00 53 1013.9
20260502034304 55 54 6.0 9.0 0.00 0.00 0.00 53 1013.8
20260502033805 55 41 4.0 12.0 0.00 0.00 0.00 53 1013.9
20260502032804 55 37 7.0 14.0 0.00 0.00 0.00 53 1013.5
20260502031304 55 43 5.0 13.0 0.00 0.00 0.00 53 1013.0
20260502030804 55 39 6.0 16.0 0.00 0.00 0.00 53 1013.0
20260502030305 56 44 6.0 13.0 0.00 0.00 0.00 52 1012.8
20260502025804 56 56 5.0 17.0 0.00 0.00 0.00 51 1012.8
20260502025306 56 33 9.0 18.0 0.00 0.00 0.00 51 1012.6